Погода в Анаа Атолле

Французская Полинезия     17°20′30″S   145°31′19″W
темп.,
°C
ветер,
м/с
пор.,
м/с
влажн.,
%
обл.,
%
осадки,
мм/ч
давл.,
гПа
погр.,
м
1 марта, пн
пн123:00+28з0070100 0.0 1012504
02:00+27сз1272100 0.0 1011484
05:00+27ссз2273100 0.0 1011453
08:00+28с2373100 0.0 1013485
11:00+28сз337376 0.0 1012586
14:00+28сз337184 0.0 1011803
17:00+28з226847 0.0 1010883
20:00+28з117538 0.0 101367
2 марта, вт
вт223:00+28з12721 0.0 1012334
02:00+28сз22731 0.0 1011646
05:00+27сз33774 0.1 1011588
08:00+27ссз33752 0.2 1013592
11:00+28сз337314 0.0 1012604
14:00+28сз347154 0.0 1010852
17:00+28з4471100 0.0 10101001
20:00+28з2377100 0.0 1012786
3 марта, ср
ср323:00+28з337678 0.0 1011702
02:00+27з447961 0.9 1010547
05:00+27з237755 1.6 1010558
08:00+27зюз347667 4.0 1012540
11:00+28з3473100 1.3 1011582
14:00+28зсз4471100 1.3 1010679
17:00+28зсз3471100 0.1 1010861
20:00+28зсз447693 0.1 1011742
4 марта, чт
чт423:00+28з447538 0.0 1011696
02:00+28з447529 0.2 1010681
05:00+27зюз347677 0.3 1011638
08:00+28сз337484 1.3 1013624
11:00+27сз337898 1.6 1012372
14:00+27сз337699 2.4 1010440
17:00+27сз2274100 0.0 1010423
20:00+27сз337482 0.0 1013462
5 марта, пт
пт523:00+27зсз337544 0.3 1013463
02:00+27зсз337422 0.5 1012467
05:00+27ссз227219 0.0 1012442
08:00+27с337325 0.0 1013481
11:00+28ссз347424 0.0 1013819
14:00+28зсз337320 0.1 1011747
17:00+28зюз226967 0.1 1011748
20:00+28юз226958 0.1 1013598